Regional Weather Roundup
Issued by NWS New Orleans/Baton Rouge, LA

Home | Current Version | Previous Version | Graphics & Text | Print | Product List | Glossary On
Versions: 1 2 3 4 5 6 7 8 9 10 11 12 13 14 15 16 17 18 19 20 21 22 23 24 25 26 27 28 29 30 31 32 33 34 35 36 37 38 39 40 41 42 43 44 45 46 47 48 49 50
614
ASUS44 KLIX 250801
RWRLIX
NEW ORLEANS REGIONAL WEATHER ROUNDUP
NATIONAL WEATHER SERVICE NEW ORLEANS LA
300 AM CDT FRI JUL 25 2014

NOTE: "FAIR" INDICATES FEW OR NO CLOUDS BELOW 12,000 FEET WITH NO
      SIGNIFICANT WEATHER AND/OR OBSTRUCTIONS TO VISIBILITY.
      SKY/WX - SKY CONDITION AND SIGNIFICANT WEATHER.
      TMP - AIR TEMPERATURE.     DP    - DEWPOINT TEMPERATURE.
      RH  - RELATIVE HUMIDITY.   PRES  - PRESSURE.
      HI  - HEAT INDEX.          WCI   - WIND CHILL INDEX.

*  THESE STATIONS ARE NOT NWS OR FAA STATIONS AND ARE NOT UNDER
   NWS QUALITY CONTROL.

LAZ038-040-048-061>063-065>067-069-250900-
SOUTHEAST LOUISIANA

CITY           SKY/WX    TMP DP  RH WIND       PRES   REMARKS
N.O. AUDUBON   NOT AVBL
N.O. INTL ARPT PTCLDY    79  75  87 W6        29.98F
N.O. LAKEFRONT PTCLDY    82  75  79 SW5       29.99S
N.O. DOWNTOWN*   N/A     81  72  74 S3        29.99F
SLIDELL        CLEAR     76  73  91 CALM      29.98S
BATON ROUGE    PTCLDY    75  73  93 CALM      30.00R FOG
BOOTHVILLE     MOCLDY    82  76  81 W15G21    29.99S
BELLE CHASSE   PTCLDY    77  73  87 W3        29.98F
BOGALUSA*        N/A     77  73  87 CALM      30.00S
GALLIANO*      NOT AVBL
NEW ROADS*     PTSUNNY   75  75  98 CALM      30.00S FOG
GONZALES*        N/A     74  74 100 CALM      30.00S FOG
HAMMOND*       CLEAR     75  72  88 CALM      30.00F
HOUMA*         CLEAR     77  73  88 CALM      30.00S
PORT FOURCHON* CLOUDY    82  75  78 W8        30.02R

$$

MSZ070-080>082-250900-
SOUTHERN MISSISSIPPI

CITY           SKY/WX    TMP DP  RH WIND       PRES   REMARKS
MCCOMB         PTCLDY    74  72  93 CALM      30.00F
GULFPORT       MOCLDY    80  74  81 CALM      29.97S
BILOXI         CLEAR     78  76  93 NW2       29.97F
PASCAGOULA     CLEAR     72  71  97 CALM      29.97F

$$

COASTAL OBSERVATIONS
LAKE AND NEARSHORE STATIONS

STATION/POSITION TIME  TEMP    WIND        PRES    WAVE
                       AIR SEA DIR/SP/G            HT/PER
                 (UTC) (F)     (DEG/KT/KT) (MB)    (FT/S)
PASCAGOULA       0718   82     230/  4/  5 1014.5
WAVELAND YACHT   0718   79     250/  2/  2 1014.6
GRAND ISLE       0718   81 84  250/  7/  9 1016.3
SOUTHWEST PASS   0718   83 85  230/ 14/ 18 1016.0
NEW CANAL        0718   82 83  250/  5/  7 1015.9
SHELL BEACH      0718   80 81  240/  4/  5 1015.4

OFFSHORE STATIONS

STATION/POSITION TIME  TEMP    WIND        PRES    WAVE
                       AIR SEA DIR/SP/G            HT/PER
                 (UTC) (F)     (DEG/KT/KT) (MB)    (FT/S)
64 S DAUPHIN ISL 0719   81 84  230/ 12/ 16 1015.3

$$




USA.gov is the U.S. government's official web portal to all federal, state and local government web resources and services.